(208154) = 2000 GS122 = 2006 SL309

Discovered at Bergisch Gladbach on 2000-04-08 by W. Bickel.

Orbit

Orbit type: Main Belt

Note: WebGL enabled browser required.

epoch2023-09-13.0
epoch JD2460200.5
perihelion date2023-03-07.10531
perihelion JD2460010.60531
argument of perihelion (°)239.28055
ascending node (°)6.27326
inclination (°)12.30211
eccentricity0.1396807
perihelion distance (AU)2.3374059
Tisserand w.r.t. Jupiter3.3
ΔV w.r.t. Earth (km/sec)10.3
semimajor axis (AU)2.7169051
mean anomaly (°)41.79314
mean daily motion (°/day)0.22008590
aphelion distance (AU)3.096
period (years)4.48
P-vector [x]-0.41599547
P-vector [y]-0.74436700
P-vector [z]-0.52236532
Q-vector [x]0.90906860
Q-vector [y]-0.32569706
Q-vector [z]-0.25983783
absolute magnitude16.12
phase slope0.15
uncertainty0
referenceMPEC 2024-A34
observations used307
oppositions14
arc length (days)8479
first opposition used2000
last opposition used2023
residual rms (arc-secs)0.87
perturbers coarse indicatorM-v
perturbers precise indicator003Ek
first observation date used2000-04-05.0
last observation date used2023-06-22.0
computer nameMPCLINUX
Minimum Orbit Intersection Distances (in AU)
for orbit epoch: 2460200.5, reference: E2024-A34
Mercury1.87846
Venus1.63201
Earth1.35211
Mars0.81302
Jupiter1.99506
Saturn6.0944
Uranus15.7675
Neptune26.8329

Observations

318 total observations over interval: 2000 04 05.26820 – 2023 06 22.976260
These data are available for download (format description).

Date (UT) J2000 RA J2000 Dec Magn Location Ref
2000 04 05.26820 12 35 57.22 -06 23 02.4 18.5 R 699 – Lowell Observatory-LONEOS MPS 15771
2000 04 05.28406 12 35 56.21 -06 23 01.5   699 – Lowell Observatory-LONEOS MPS 15771
2000 04 05.29998 12 35 55.21 -06 23 01.1   699 – Lowell Observatory-LONEOS MPS 15771
2000 04 05.31589 12 35 54.17 -06 23 01.0   699 – Lowell Observatory-LONEOS MPS 15771
2000 04 07.28810 12 33 53.32 -06 22 14.4 18.5   704 – Lincoln Laboratory ETS, New Mexico MPS 15771
2000 04 07.30278 12 33 52.48 -06 22 13.0 19.3   704 – Lincoln Laboratory ETS, New Mexico MPS 15771
2000 04 07.31826 12 33 51.43 -06 22 14.6 19.4   704 – Lincoln Laboratory ETS, New Mexico MPS 15771
2000 04 07.33314 12 33 50.46 -06 22 11.9 19.3   704 – Lincoln Laboratory ETS, New Mexico MPS 15771
2000 04 07.34979 12 33 49.49 -06 22 13.0 19.2   704 – Lincoln Laboratory ETS, New Mexico MPS 15771
2000 04 08.01552 12 33 08.99 -06 21 59.1   621 – Bergisch Gladbach MPS 12859
2000 04 08.01782 12 33 08.88 -06 21 58.6   621 – Bergisch Gladbach MPS 12859
2000 04 08.02013 12 33 08.75 -06 21 58.6 18.7 R 621 – Bergisch Gladbach MPS 12859
2000 04 10.06900 12 31 05.43 -06 21 11.3   621 – Bergisch Gladbach MPS 12859
2000 04 10.07269 12 31 05.19 -06 21 09.8   621 – Bergisch Gladbach MPS 12859
2000 04 10.07637 12 31 04.94 -06 21 10.9   621 – Bergisch Gladbach MPS 12859
2004 02 14.27471 09 37 38.84 +28 51 39.7 19.8   704 – Lincoln Laboratory ETS, New Mexico MPS 243493
2004 02 14.28702 09 37 37.99 +28 51 41.5 20.3   704 – Lincoln Laboratory ETS, New Mexico MPS 243493
2004 02 14.32246 09 37 35.67 +28 51 43.5 19.9   704 – Lincoln Laboratory ETS, New Mexico MPS 243493
2004 03 17.300880 09 09 54.372 +28 02 14.10 20.47 V 645 – Apache Point-Sloan Digital Sky Survey MPS 239304
2004 03 17.304352 09 09 54.263 +28 02 13.12 21.31   645 – Apache Point-Sloan Digital Sky Survey MPS 239304
2006 07 21.41457 01 34 02.53 +09 16 42.5 21.6 V G96 – Mt. Lemmon Survey MPS 186748
2006 07 21.41905 01 34 02.67 +09 16 44.4 21.6 V G96 – Mt. Lemmon Survey MPS 186748
2006 07 21.42354 01 34 02.82 +09 16 45.8 21.2 V G96 – Mt. Lemmon Survey MPS 186748
2006 07 21.42817 01 34 02.96 +09 16 48.0 21.2 V G96 – Mt. Lemmon Survey MPS 186748
2006 09 19.36708 01 29 10.49 +12 27 54.8 20.5 V 691 – Steward Observatory, Kitt Peak-Spacewatch MPS 186748
2006 09 19.38454 01 29 09.70 +12 27 54.6 21.0 V 691 – Steward Observatory, Kitt Peak-Spacewatch MPS 186748
2006 09 19.40193 01 29 08.86 +12 27 54.3 20.6 V 691 – Steward Observatory, Kitt Peak-Spacewatch MPS 186748
2006 09 27.01060 01 22 55.13 +12 23 57.5 19.5 R 152 – Moletai Astronomical Observatory MPS 184190
2006 09 27.02153 01 22 54.56 +12 23 54.6 19.3 R 152 – Moletai Astronomical Observatory MPS 184190
2006 09 27.03083 01 22 53.95 +12 23 54.8 19.7 R 152 – Moletai Astronomical Observatory MPS 184190
2006 09 27.31116 01 22 39.37 +12 23 40.6 20.6 V 691 – Steward Observatory, Kitt Peak-Spacewatch MPS 183002
2006 09 27.32860 01 22 38.43 +12 23 39.5 20.6 V 691 – Steward Observatory, Kitt Peak-Spacewatch MPS 183002
2006 09 27.34597 01 22 37.47 +12 23 38.6 20.3 V 691 – Steward Observatory, Kitt Peak-Spacewatch MPS 183002
2006 10 01.31356 01 19 02.72 +12 19 04.0   691 – Steward Observatory, Kitt Peak-Spacewatch MPS 183002
2006 10 01.33087 01 19 01.75 +12 19 02.6   691 – Steward Observatory, Kitt Peak-Spacewatch MPS 183002
2006 10 01.34819 01 19 00.77 +12 19 01.4   691 – Steward Observatory, Kitt Peak-Spacewatch MPS 183002
2006 11 18.18712 00 40 48.79 +10 44 20.3 20.3 V G96 – Mt. Lemmon Survey MPS 188328
2006 11 18.19209 00 40 48.72 +10 44 20.8 20.4 V G96 – Mt. Lemmon Survey MPS 188328
2006 11 18.19708 00 40 48.54 +10 44 19.9 20.8 V G96 – Mt. Lemmon Survey MPS 188328
2006 11 18.20207 00 40 48.43 +10 44 19.5 20.1 V G96 – Mt. Lemmon Survey MPS 188328
2008 02 02.81077 05 58 24.76 +40 02 04.6   621 – Bergisch Gladbach MPS 239304
2008 02 02.82352 05 58 24.29 +40 02 00.0   621 – Bergisch Gladbach MPS 239304
2008 02 02.83628 05 58 23.92 +40 01 57.1 20 R 621 – Bergisch Gladbach MPS 239304
2008 02 08.76838 05 55 56.21 +39 33 43.7   621 – Bergisch Gladbach MPS 237356
2008 02 08.79389 05 55 55.78 +39 33 36.7   621 – Bergisch Gladbach MPS 237356
2008 02 08.81938 05 55 55.24 +39 33 27.2 20 R 621 – Bergisch Gladbach MPS 237356
2009 02 01.42819 13 22 00.44 -06 44 55.5 20.4 V G96 – Mt. Lemmon Survey MPS 272188
2009 02 01.43368 13 22 00.55 -06 44 57.4 20.6 V G96 – Mt. Lemmon Survey MPS 272188
2009 02 01.43929 13 22 00.66 -06 44 59.2 20.6 V G96 – Mt. Lemmon Survey MPS 272188
2009 02 01.44490 13 22 00.80 -06 45 01.3 20.4 V G96 – Mt. Lemmon Survey MPS 272188
2009 03 07.37927 13 20 00.63 -09 13 57.9 19.8 V G96 – Mt. Lemmon Survey MPS 278536
2009 03 07.38543 13 20 00.45 -09 13 58.7 19.7 V G96 – Mt. Lemmon Survey MPS 278536
2009 03 07.39159 13 20 00.24 -09 14 00.3 19.2 V G96 – Mt. Lemmon Survey MPS 278536
2009 03 07.39774 13 20 00.02 -09 14 00.8 19.3 V G96 – Mt. Lemmon Survey MPS 278536
2009 03 18.59267 13 12 22.32 -09 36 29.5 19.3 V E12 – Siding Spring Survey MPS 281163
2009 03 18.60209 13 12 21.81 -09 36 30.0 19.8 V E12 – Siding Spring Survey MPS 281163
2009 03 18.61154 13 12 21.34 -09 36 30.7 20.3 V E12 – Siding Spring Survey MPS 281163
2009 03 18.62102 13 12 20.88 -09 36 32.5 18.7 V E12 – Siding Spring Survey MPS 281163
2009 03 23.64607 13 07 59.60 -09 42 26.6 18.7 R D29 – Purple Mountain Observatory, XuYi Station MPS 282421
2009 03 23.66440 13 07 58.61 -09 42 26.6 18.7 R D29 – Purple Mountain Observatory, XuYi Station MPS 282421
2009 03 23.67823 13 07 57.79 -09 42 29.0 19.5 R D29 – Purple Mountain Observatory, XuYi Station MPS 282421
2009 03 23.69199 13 07 57.03 -09 42 29.8 19.3 R D29 – Purple Mountain Observatory, XuYi Station MPS 282421
2009 03 27.39994 13 04 27.01 -09 45 12.6 19.0 V G96 – Mt. Lemmon Survey MPS 282421
2009 03 27.40752 13 04 26.50 -09 45 12.6 19.1 V G96 – Mt. Lemmon Survey MPS 282421
2009 03 27.41507 13 04 26.07 -09 45 13.0 19.3 V G96 – Mt. Lemmon Survey MPS 282421
2009 03 27.42263 13 04 25.60 -09 45 13.3 19.3 V G96 – Mt. Lemmon Survey MPS 282421
2009 03 29.37820 13 02 30.53 -09 46 09.0 18.9   704 – Lincoln Laboratory ETS, New Mexico MPS 283548
2009 03 29.39017 13 02 29.82 -09 46 08.6 19.1   704 – Lincoln Laboratory ETS, New Mexico MPS 283548
2009 03 29.40208 13 02 29.00 -09 46 09.9 19.2   704 – Lincoln Laboratory ETS, New Mexico MPS 283548
2009 03 31.30890 13 00 34.56 -09 46 48.2 18.5 V 703 – Catalina Sky Survey MPS 283548
2009 03 31.31675 13 00 34.02 -09 46 47.7 18.6 V 703 – Catalina Sky Survey MPS 283548
2009 03 31.32462 13 00 33.58 -09 46 48.2 19.0 V 703 – Catalina Sky Survey MPS 283548
2009 03 31.33248 13 00 33.08 -09 46 48.1 19.3 V 703 – Catalina Sky Survey MPS 283548
2009 04 01.29804 12 59 34.40 -09 47 01.8 18.9 V G96 – Mt. Lemmon Survey MPS 283548
2009 04 01.31108 12 59 33.54 -09 47 02.0 18.9 V G96 – Mt. Lemmon Survey MPS 283548
2009 04 01.33733 12 59 31.88 -09 47 02.2 19.0 V G96 – Mt. Lemmon Survey MPS 283548
2009 04 17.26688 12 43 18.80 -09 44 06.5 19.1 V 703 – Catalina Sky Survey MPS 284188
2009 04 17.27255 12 43 18.48 -09 44 06.5 19.7 V 703 – Catalina Sky Survey MPS 284188
2009 04 17.27843 12 43 18.12 -09 44 07.0 19.5 V 703 – Catalina Sky Survey MPS 284188
2009 04 17.28414 12 43 17.79 -09 44 07.3 19.4 V 703 – Catalina Sky Survey MPS 284188
2009 05 01.21490 12 31 33.31 -09 41 21.5 19.9 V 703 – Catalina Sky Survey MPS 286383
2009 05 01.22344 12 31 32.95 -09 41 20.0 19.4 V 703 – Catalina Sky Survey MPS 286383
2009 05 01.23204 12 31 32.48 -09 41 20.7 19.7 V 703 – Catalina Sky Survey MPS 286383
2009 05 01.24059 12 31 32.16 -09 41 20.9 21.0 V 703 – Catalina Sky Survey MPS 286383
2010 09 15.284325 22 30 23.395 -18 49 09.88 19.87 r F51 – Pan-STARRS 1, Haleakala MPS 365201
2010 09 15.299123 22 30 22.603 -18 49 08.98 19.78 i F51 – Pan-STARRS 1, Haleakala MPS 365201
2010 09 15.310510 22 30 21.980 -18 49 08.36 19.82 i F51 – Pan-STARRS 1, Haleakala MPS 365201
2010 10 03.83975 22 17 43.00 -18 05 28.4 20.5 R 461 – University of Szeged, Piszkesteto Stn. (Konkol MPS 350904
2010 10 03.87765 22 17 41.94 -18 05 19.9   461 – University of Szeged, Piszkesteto Stn. (Konkol MPS 350904
2013 01 14.45240 10 16 16.60 +25 39 46.5 19.7 V G96 – Mt. Lemmon Survey MPS 452038
2013 01 14.46091 10 16 16.28 +25 39 48.0 20.2 V G96 – Mt. Lemmon Survey MPS 452038
2013 01 14.46941 10 16 15.96 +25 39 50.0 20.2 V G96 – Mt. Lemmon Survey MPS 452038
2013 01 14.47787 10 16 15.63 +25 39 52.1 20.4 V G96 – Mt. Lemmon Survey MPS 452038
2013 01 17.47731 10 14 28.03 +25 52 07.6 19.8 V 703 – Catalina Sky Survey MPS 452038
